Time,TemperatureF,DewpointF,PressureIn,WindDirection,WindDirectionDegrees,WindSpeedMPH,WindSpeedGustMPH,Humidity,HourlyPrecipIn,Conditions,Clouds,dailyrainin,SoftwareType,DateUTC
2013-10-03 00:01:00,75.0,73.0,29.92,SE,142,0.0,2.0,93,0.00,,,0.01,weatherlink.com 1.10,2013-10-03 05:01:00,
2013-10-03 00:16:00,74.8,73.0,29.92,SE,144,1.0,4.0,93,0.00,,,0.00,weatherlink.com 1.10,2013-10-03 05:16:00,
2013-10-03 00:31:00,74.7,73.0,29.92,SE,144,0.0,2.0,93,0.00,,,0.00,weatherlink.com 1.10,2013-10-03 05:31:00,
2013-10-03 00:46:00,74.5,72.0,29.91,SE,144,0.0,2.0,93,0.00,,,0.00,weatherlink.com 1.10,2013-10-03 05:46:00,
2013-10-03 01:01:00,74.3,72.0,29.91,SE,144,0.0,1.0,93,0.00,,,0.00,weatherlink.com 1.10,2013-10-03 06:01:00,
2013-10-03 01:16:00,74.1,72.0,29.92,SSE,155,0.0,1.0,93,0.00,,,0.00,weatherlink.com 1.10,2013-10-03 06:16:00,
2013-10-03 01:32:00,74.0,72.0,29.92,SSE,155,0.0,0.0,94,0.00,,,0.00,weatherlink.com 1.10,2013-10-03 06:32:00,
2013-10-03 01:46:00,73.8,72.0,29.92,SSE,155,0.0,0.0,94,0.00,,,0.00,weatherlink.com 1.10,2013-10-03 06:46:00,
2013-10-03 02:01:00,73.6,72.0,29.91,SSE,155,0.0,0.0,94,0.00,,,0.00,weatherlink.com 1.10,2013-10-03 07:01:00,
2013-10-03 02:16:00,73.3,72.0,29.91,SSE,155,0.0,0.0,94,0.00,,,0.00,weatherlink.com 1.10,2013-10-03 07:16:00,
2013-10-03 02:31:00,73.0,71.0,29.91,SSE,155,0.0,0.0,94,0.00,,,0.00,weatherlink.com 1.10,2013-10-03 07:31:00,
2013-10-03 02:46:00,72.7,71.0,29.91,SSE,155,0.0,0.0,94,0.00,,,0.00,weatherlink.com 1.10,2013-10-03 07:46:00,
2013-10-03 03:01:00,72.5,71.0,29.90,SSE,155,0.0,0.0,94,0.00,,,0.00,weatherlink.com 1.10,2013-10-03 08:01:00,
2013-10-03 03:16:00,72.3,71.0,29.90,SSE,155,0.0,1.0,95,0.00,,,0.00,weatherlink.com 1.10,2013-10-03 08:16:00,
2013-10-03 03:31:00,72.2,71.0,29.90,SSE,155,0.0,1.0,95,0.00,,,0.00,weatherlink.com 1.10,2013-10-03 08:31:00,
2013-10-03 03:46:00,72.1,71.0,29.89,SSE,155,0.0,0.0,95,0.00,,,0.00,weatherlink.com 1.10,2013-10-03 08:46:00,
2013-10-03 04:01:00,72.0,71.0,29.89,SSE,155,0.0,0.0,95,0.00,,,0.00,weatherlink.com 1.10,2013-10-03 09:01:00,
2013-10-03 04:16:00,71.9,71.0,29.89,SSE,155,0.0,0.0,95,0.00,,,0.00,weatherlink.com 1.10,2013-10-03 09:16:00,
2013-10-03 04:31:00,71.7,70.0,29.89,SSE,155,0.0,0.0,95,0.00,,,0.00,weatherlink.com 1.10,2013-10-03 09:31:00,
2013-10-03 04:46:00,71.6,70.0,29.89,SSE,155,0.0,0.0,95,0.00,,,0.00,weatherlink.com 1.10,2013-10-03 09:46:00,
2013-10-03 05:01:00,71.5,70.0,29.89,SSE,155,0.0,0.0,95,0.00,,,0.00,weatherlink.com 1.10,2013-10-03 10:01:00,
2013-10-03 05:16:00,71.4,70.0,29.89,SSE,155,0.0,0.0,95,0.00,,,0.00,weatherlink.com 1.10,2013-10-03 10:16:00,
2013-10-03 05:31:00,71.5,70.0,29.90,SSE,155,0.0,0.0,96,0.00,,,0.00,weatherlink.com 1.10,2013-10-03 10:31:00,
2013-10-03 05:47:00,71.7,71.0,29.90,SSE,155,0.0,0.0,96,0.00,,,0.00,weatherlink.com 1.10,2013-10-03 10:47:00,
2013-10-03 06:02:00,72.0,71.0,29.90,SSE,155,0.0,0.0,96,0.00,,,0.00,weatherlink.com 1.10,2013-10-03 11:02:00,
2013-10-03 06:17:00,72.2,71.0,29.90,SSE,155,0.0,0.0,96,0.00,,,0.00,weatherlink.com 1.10,2013-10-03 11:17:00,
2013-10-03 06:32:00,72.5,72.0,29.91,SSE,155,0.0,1.0,97,0.00,,,0.00,weatherlink.com 1.10,2013-10-03 11:32:00,
2013-10-03 06:47:00,72.6,71.0,29.91,SSE,155,0.0,0.0,96,0.00,,,0.00,weatherlink.com 1.10,2013-10-03 11:47:00,
2013-10-03 07:02:00,72.7,72.0,29.91,SSE,155,0.0,1.0,96,0.00,,,0.00,weatherlink.com 1.10,2013-10-03 12:02:00,
2013-10-03 07:17:00,72.8,72.0,29.91,SSE,155,0.0,1.0,96,0.00,,,0.00,weatherlink.com 1.10,2013-10-03 12:17:00,
2013-10-03 07:32:00,72.9,72.0,29.91,South,187,0.0,3.0,97,0.00,,,0.00,weatherlink.com 1.10,2013-10-03 12:32:00,
2013-10-03 07:47:00,73.1,72.0,29.91,South,187,0.0,1.0,97,0.00,,,0.00,weatherlink.com 1.10,2013-10-03 12:47:00,
2013-10-03 08:02:00,73.3,72.0,29.92,South,187,0.0,2.0,97,0.00,,,0.00,weatherlink.com 1.10,2013-10-03 13:02:00,
2013-10-03 08:17:00,73.6,73.0,29.92,SE,136,0.0,2.0,97,0.00,,,0.00,weatherlink.com 1.10,2013-10-03 13:17:00,
2013-10-03 08:32:00,73.9,73.0,29.93,SSE,156,0.0,2.0,97,0.00,,,0.00,weatherlink.com 1.10,2013-10-03 13:32:00,
2013-10-03 08:47:00,74.2,73.0,29.93,SE,137,0.0,4.0,97,0.00,,,0.00,weatherlink.com 1.10,2013-10-03 13:47:00,
2013-10-03 09:02:00,74.5,74.0,29.94,SE,136,0.0,2.0,97,0.00,,,0.00,weatherlink.com 1.10,2013-10-03 14:02:00,
2013-10-03 09:17:00,74.9,74.0,29.94,SW,226,0.0,3.0,97,0.00,,,0.00,weatherlink.com 1.10,2013-10-03 14:17:00,
2013-10-03 09:32:00,75.5,75.0,29.94,SW,230,2.0,3.0,97,0.00,,,0.00,weatherlink.com 1.10,2013-10-03 14:32:00,
2013-10-03 09:47:00,76.0,75.0,29.95,SSE,163,1.0,5.0,97,0.00,,,0.00,weatherlink.com 1.10,2013-10-03 14:47:00,
2013-10-03 10:02:00,77.6,76.0,29.95,SSW,205,1.0,3.0,96,0.00,,,0.00,weatherlink.com 1.10,2013-10-03 15:02:00,
2013-10-03 10:17:00,79.9,77.0,29.95,South,184,3.0,4.0,89,0.00,,,0.00,weatherlink.com 1.10,2013-10-03 15:17:00,
2013-10-03 10:32:00,80.1,76.0,29.95,SSE,149,2.0,7.0,86,0.00,,,0.00,weatherlink.com 1.10,2013-10-03 15:32:00,
2013-10-03 10:47:00,81.7,76.0,29.95,SE,130,0.0,4.0,83,0.00,,,0.00,weatherlink.com 1.10,2013-10-03 15:47:00,
2013-10-03 11:02:00,81.7,76.0,29.95,SW,215,2.0,5.0,83,0.00,,,0.00,weatherlink.com 1.10,2013-10-03 16:02:00,
2013-10-03 11:32:00,83.0,76.0,29.94,South,182,4.0,10.0,79,0.00,,,0.00,weatherlink.com 1.10,2013-10-03 16:32:00,
2013-10-03 11:47:00,83.3,75.0,29.95,SSE,158,3.0,8.0,77,0.00,,,0.00,weatherlink.com 1.10,2013-10-03 16:47:00,
2013-10-03 12:02:00,84.1,75.0,29.94,South,184,4.0,7.0,74,0.00,,,0.00,weatherlink.com 1.10,2013-10-03 17:02:00,
2013-10-03 12:17:00,85.2,74.0,29.94,SE,126,0.0,4.0,70,0.00,,,0.00,weatherlink.com 1.10,2013-10-03 17:17:00,
2013-10-03 12:32:00,85.6,74.0,29.93,SE,141,3.0,9.0,69,0.00,,,0.00,weatherlink.com 1.10,2013-10-03 17:32:00,
2013-10-03 12:47:00,85.4,75.0,29.93,SW,236,4.0,6.0,71,0.00,,,0.00,weatherlink.com 1.10,2013-10-03 17:47:00,
2013-10-03 13:02:00,85.6,74.0,29.92,SSE,168,0.0,4.0,68,0.00,,,0.00,weatherlink.com 1.10,2013-10-03 18:02:00,
2013-10-03 13:17:00,85.2,76.0,29.91,SE,143,1.0,5.0,74,0.00,,,0.00,weatherlink.com 1.10,2013-10-03 18:17:00,
2013-10-03 13:32:00,85.6,75.0,29.91,NE,55,1.0,5.0,70,0.00,,,0.00,weatherlink.com 1.10,2013-10-03 18:32:00,
2013-10-03 13:47:00,86.5,76.0,29.90,East,97,3.0,7.0,71,0.00,,,0.00,weatherlink.com 1.10,2013-10-03 18:47:00,
2013-10-03 14:02:00,85.6,76.0,29.89,SSE,167,3.0,5.0,74,0.00,,,0.00,weatherlink.com 1.10,2013-10-03 19:02:00,
2013-10-03 14:17:00,86.8,76.0,29.88,SSE,148,2.0,5.0,69,0.00,,,0.00,weatherlink.com 1.10,2013-10-03 19:17:00,
2013-10-03 14:32:00,86.7,75.0,29.88,North,11,5.0,6.0,68,0.00,,,0.00,weatherlink.com 1.10,2013-10-03 19:32:00,
2013-10-03 14:47:00,86.6,75.0,29.87,NNE,15,7.0,7.0,68,0.00,,,0.00,weatherlink.com 1.10,2013-10-03 19:47:00,
2013-10-03 15:02:00,85.2,74.0,29.87,NE,36,5.0,6.0,70,0.00,,,0.00,weatherlink.com 1.10,2013-10-03 20:02:00,
2013-10-03 15:17:00,87.0,74.0,29.86,SE,130,1.0,5.0,65,0.00,,,0.00,weatherlink.com 1.10,2013-10-03 20:17:00,
2013-10-03 15:33:00,86.4,75.0,29.86,NW,323,7.0,7.0,68,0.00,,,0.00,weatherlink.com 1.10,2013-10-03 20:33:00,
2013-10-03 15:48:00,86.1,74.0,29.86,NNE,16,2.0,7.0,67,0.00,,,0.00,weatherlink.com 1.10,2013-10-03 20:48:00,
2013-10-03 16:03:00,85.8,75.0,29.86,NNE,13,3.0,5.0,69,0.00,,,0.00,weatherlink.com 1.10,2013-10-03 21:03:00,
2013-10-03 16:18:00,86.8,74.0,29.86,SE,125,4.0,5.0,65,0.00,,,0.00,weatherlink.com 1.10,2013-10-03 21:18:00,
2013-10-03 16:33:00,85.7,74.0,29.86,NNE,28,0.0,6.0,67,0.00,,,0.00,weatherlink.com 1.10,2013-10-03 21:33:00,
2013-10-03 16:48:00,85.2,75.0,29.85,North,11,4.0,7.0,71,0.00,,,0.00,weatherlink.com 1.10,2013-10-03 21:48:00,
2013-10-03 17:03:00,84.7,75.0,29.85,ENE,58,0.0,4.0,73,0.00,,,0.00,weatherlink.com 1.10,2013-10-03 22:03:00,
2013-10-03 17:18:00,84.5,76.0,29.85,South,190,0.0,5.0,75,0.00,,,0.00,weatherlink.com 1.10,2013-10-03 22:18:00,
2013-10-03 17:33:00,84.2,76.0,29.85,East,94,0.0,2.0,76,0.00,,,0.00,weatherlink.com 1.10,2013-10-03 22:33:00,
2013-10-03 17:48:00,83.9,74.0,29.85,South,180,0.0,4.0,73,0.00,,,0.00,weatherlink.com 1.10,2013-10-03 22:48:00,
2013-10-03 18:03:00,83.7,74.0,29.85,SSE,157,3.0,5.0,72,0.00,,,0.00,weatherlink.com 1.10,2013-10-03 23:03:00,
2013-10-03 18:18:00,83.6,74.0,29.85,NE,38,0.0,3.0,72,0.00,,,0.00,weatherlink.com 1.10,2013-10-03 23:18:00,
2013-10-03 18:33:00,83.5,74.0,29.85,SSE,157,0.0,4.0,72,0.00,,,0.00,weatherlink.com 1.10,2013-10-03 23:33:00,
2013-10-03 18:48:00,83.3,74.0,29.86,East,94,0.0,1.0,73,0.00,,,0.00,weatherlink.com 1.10,2013-10-03 23:48:00,
2013-10-03 19:03:00,82.5,74.0,29.86,East,94,0.0,1.0,76,0.00,,,0.00,weatherlink.com 1.10,2013-10-04 00:03:00,
2013-10-03 19:18:00,81.2,74.0,29.86,East,94,0.0,0.0,78,0.00,,,0.00,weatherlink.com 1.10,2013-10-04 00:18:00,
2013-10-03 19:33:00,80.2,74.0,29.86,East,94,0.0,0.0,81,0.00,,,0.00,weatherlink.com 1.10,2013-10-04 00:33:00,
2013-10-03 19:48:00,79.2,74.0,29.86,East,94,0.0,0.0,83,0.00,,,0.00,weatherlink.com 1.10,2013-10-04 00:48:00,
2013-10-03 20:03:00,78.6,73.0,29.86,East,94,0.0,0.0,84,0.00,,,0.00,weatherlink.com 1.10,2013-10-04 01:03:00,
2013-10-03 20:18:00,78.2,73.0,29.87,East,94,0.0,0.0,85,0.00,,,0.00,weatherlink.com 1.10,2013-10-04 01:18:00,
2013-10-03 20:33:00,77.9,74.0,29.87,East,94,0.0,0.0,86,0.00,,,0.00,weatherlink.com 1.10,2013-10-04 01:33:00,
2013-10-03 20:48:00,77.6,73.0,29.87,East,94,0.0,0.0,86,0.00,,,0.00,weatherlink.com 1.10,2013-10-04 01:48:00,
2013-10-03 21:03:00,77.3,73.0,29.88,East,94,0.0,0.0,86,0.00,,,0.00,weatherlink.com 1.10,2013-10-04 02:03:00,
2013-10-03 21:18:00,77.0,73.0,29.89,East,95,0.0,0.0,87,0.00,,,0.00,weatherlink.com 1.10,2013-10-04 02:18:00,
2013-10-03 21:33:00,76.7,73.0,29.89,East,95,0.0,1.0,87,0.00,,,0.00,weatherlink.com 1.10,2013-10-04 02:33:00,
2013-10-03 21:48:00,76.4,73.0,29.89,East,95,0.0,2.0,88,0.00,,,0.00,weatherlink.com 1.10,2013-10-04 02:48:00,
2013-10-03 22:03:00,76.2,73.0,29.90,SE,132,1.0,1.0,88,0.00,,,0.00,weatherlink.com 1.10,2013-10-04 03:03:00,
2013-10-03 22:18:00,76.1,73.0,29.90,SSE,159,1.0,1.0,89,0.00,,,0.00,weatherlink.com 1.10,2013-10-04 03:18:00,
2013-10-03 22:33:00,75.9,73.0,29.91,SSW,196,0.0,2.0,89,0.00,,,0.00,weatherlink.com 1.10,2013-10-04 03:33:00,
2013-10-03 22:48:00,75.7,73.0,29.91,SSW,196,0.0,2.0,90,0.00,,,0.00,weatherlink.com 1.10,2013-10-04 03:48:00,
2013-10-03 23:48:00,74.5,72.0,29.90,ESE,111,0.0,4.0,91,0.00,,,0.00,weatherlink.com 1.10,2013-10-04 04:48:00,